This is the latest recevied weather packets stored in our database for station/object KR4KUV. If no packets are shown the sender has not sent any weather packets the latest 10 day(s).
| Time | Temp. | Humidity | Pressure | Rain* | Wind** | Luminosity | Snow |
|---|---|---|---|---|---|---|---|
| 1787522289 | 31.11° C | 50% | 1015.6 hPa | 0 mm | - | 238 W/m² | - |
| 1787521985 | 31.11° C | 49% | 1015.6 hPa | 0 mm | - | 254 W/m² | - |
| 1787521683 | 31.67° C | 51% | 1015.5 hPa | 0 mm | - | 269 W/m² | - |
| 1787521378 | 31.67° C | 46% | 1015.6 hPa | 0 mm | - | 287 W/m² | - |
| 1787521072 | 31.67° C | 47% | 1015.6 hPa | 0 mm | - | 302 W/m² | - |
| 1787520768 | 31.11° C | 45% | 1015.6 hPa | 0 mm | - | 318 W/m² | - |
| 1787520463 | 31.11° C | 53% | 1015.4 hPa | 0 mm | - | 334 W/m² | - |
| 1787520159 | 31.11° C | 51% | 1015.3 hPa | 0 mm | - | 352 W/m² | - |
| 1787519854 | 31.67° C | 46% | 1015.4 hPa | 0 mm | - | 368 W/m² | - |
| 1787519550 | 31.67° C | 52% | 1015.5 hPa | 0 mm | - | 384 W/m² | - |
| 1787519245 | 31.67° C | 51% | 1015.5 hPa | 0 mm | - | 398 W/m² | - |
| 1787518940 | 32.22° C | 48% | 1015.5 hPa | 0 mm | - | 414 W/m² | - |
| 1787518634 | 32.22° C | 44% | 1015.5 hPa | 0 mm | - | 435 W/m² | - |
| 1787518330 | 32.22° C | 44% | 1015.6 hPa | 0 mm | - | 455 W/m² | - |
| 1787518025 | 31.67° C | 48% | 1015.7 hPa | 0 mm | - | 463 W/m² | - |
| 1787517721 | 31.67° C | 47% | 1015.7 hPa | 0 mm | - | 473 W/m² | - |
| 1787517417 | 31.67° C | 45% | 1015.6 hPa | 0 mm | - | 489 W/m² | - |
| 1787517114 | 31.67° C | 55% | 1015.6 hPa | 0 mm | - | 498 W/m² | - |
| 1787516812 | 31.67° C | 49% | 1015.8 hPa | 0 mm | - | 521 W/m² | - |
| 1787516508 | 31.11° C | 46% | 1015.8 hPa | 0 mm | - | 532 W/m² | - |
| 1787516207 | 30.56° C | 50% | 1015.9 hPa | 0 mm | - | 543 W/m² | - |
| 1787515902 | 30.56° C | 52% | 1015.9 hPa | 0 mm | - | 340 W/m² | - |
| 1787515598 | 31.11° C | 52% | 1015.9 hPa | 0 mm | - | 194 W/m² | - |
| 1787515293 | 31.67° C | 53% | 1016 hPa | 0 mm | - | 622 W/m² | - |
| 1787514988 | 31.67° C | 48% | 1016 hPa | 0 mm | - | 643 W/m² | - |
* Rain latest hour (hover to see other rain measurements)
** Current wind speed in m/s (hover to see current wind gust speed)